Tolar, TX

4:02 PM CST on February 06, 2016 (GMT -0600)
Granbury

Weather History for KGDJ - August, 2012

Change the Weather History Date:

Saturday, August 11, 2012

  Actual Average (KSEP) Record (KSEP)
Temperature  
Mean Temperature 84 °F -  
Max Temperature 100 °F 91 °F 106 °F (1953)
Min Temperature 68 °F 70 °F 60 °F (1960)
Cooling Degree Days 19    
Growing Degree Days 34 (Base 50)    
Moisture  
Dew Point 50 °F    
Average Humidity 36    
Maximum Humidity 60    
Minimum Humidity 14    
Precipitation  
Precipitation 0.00 in - - ()
Sea Level Pressure  
Sea Level Pressure 29.96 in    
Wind  
Wind Speed 2 mph (ESE)    
Max Wind Speed 9 mph    
Max Gust Speed 16 mph    
Visibility 10 miles    
Events      
Averages and records for this station are not official NWS values.
T = Trace of Precipitation, MM = Missing Value Source: NWS Daily Summary

Daily Weather History Graph

Daily Weather History Graph

Search for Another Location

Airport or City:

Trip Planner

Search our weather history database for the weather conditions in past years. The results will help you decide how hot, cold, wet, or windy it might be!

Date:

Astronomy

Aug. 11, 2012 Rise Set
Actual Time 6:52 AM CDT 8:19 PM CDT
Civil Twilight 6:26 AM CDT 8:45 PM CDT
Nautical Twilight 5:55 AM CDT 9:16 PM CDT
Astronomical Twilight 5:22 AM CDT 9:49 PM CDT
Moon 1:27 AM CDT (8/11) 3:48 PM CDT (8/11)
Length of Visible Light 14h 18m
Length of Day
13h 26m
Waning Crescent, 32% of the Moon is Illuminated
Aug 11
Waning Crescent
Aug 17
New
Aug 24
First Quarter
Aug 31
Full
Sep 8
Last Quarter

Hourly Weather History & Observations

Time (CDT) Temp. Dew Point Humidity Pressure Visibility Wind Dir Wind Speed Gust Speed Precip Events Conditions
12:15 AM 78.8 °F 50.0 °F 36% 29.95 in 10.0 mi Calm Calm - N/A   Clear
12:35 AM 78.8 °F 51.8 °F 39% 29.95 in 10.0 mi Calm Calm - N/A   Clear
12:55 AM 77.0 °F 51.8 °F 41% 29.95 in 10.0 mi Calm Calm - N/A   Clear
1:15 AM 73.4 °F 51.8 °F 47% 29.95 in 10.0 mi Calm Calm - N/A   Clear
1:35 AM 73.4 °F 51.8 °F 47% 29.95 in 10.0 mi Calm Calm - N/A   Clear
1:55 AM 73.4 °F 53.6 °F 50% 29.96 in 10.0 mi Calm Calm - N/A   Clear
2:15 AM 71.6 °F 53.6 °F 53% 29.95 in 10.0 mi Calm Calm - N/A   Clear
2:35 AM 69.8 °F 53.6 °F 56% 29.95 in 10.0 mi Calm Calm - N/A   Clear
2:55 AM 69.8 °F 53.6 °F 56% 29.95 in 10.0 mi Calm Calm - N/A   Clear
3:15 AM 69.8 °F 53.6 °F 56% 29.95 in 10.0 mi Calm Calm - N/A   Clear
3:35 AM 69.8 °F 53.6 °F 56% 29.96 in 10.0 mi Calm Calm - N/A   Clear
3:55 AM 68.0 °F 53.6 °F 60% 29.96 in 10.0 mi Calm Calm - N/A   Clear
4:15 AM 68.0 °F 53.6 °F 60% 29.96 in 10.0 mi Calm Calm - N/A   Clear
4:35 AM 68.0 °F 53.6 °F 60% 29.96 in 10.0 mi West 3.5 mph - N/A   Clear
4:55 AM 68.0 °F 53.6 °F 60% 29.96 in 10.0 mi Calm Calm - N/A   Clear
5:15 AM 68.0 °F 53.6 °F 60% 29.97 in 10.0 mi SW 3.5 mph - N/A   Clear
5:35 AM 69.8 °F 53.6 °F 56% 29.97 in 10.0 mi Calm Calm - N/A   Clear
5:55 AM 68.0 °F 53.6 °F 60% 29.97 in 10.0 mi Calm Calm - N/A   Clear
6:15 AM 68.0 °F 53.6 °F 60% 29.98 in 10.0 mi West 3.5 mph - N/A   Clear
6:35 AM 68.0 °F 53.6 °F 60% 29.98 in 10.0 mi Calm Calm - N/A   Clear
6:55 AM 68.0 °F 53.6 °F 60% 29.99 in 10.0 mi Calm Calm - N/A   Clear
7:15 AM 68.0 °F 53.6 °F 60% 30.00 in 10.0 mi West 4.6 mph - N/A   Clear
7:35 AM 69.8 °F 53.6 °F 56% 30.01 in 10.0 mi Calm Calm - N/A   Clear
7:55 AM 71.6 °F 53.6 °F 53% 30.01 in 10.0 mi Calm Calm - N/A   Clear
8:15 AM 73.4 °F 53.6 °F 50% 30.02 in 10.0 mi Calm Calm - N/A   Clear
8:35 AM 77.0 °F 55.4 °F 47% 30.02 in 10.0 mi Calm Calm - N/A   Clear
8:55 AM 78.8 °F 53.6 °F 42% 30.02 in 10.0 mi NE 3.5 mph - N/A   Clear
9:15 AM 82.4 °F 51.8 °F 35% 30.02 in 10.0 mi ENE 4.6 mph - N/A   Clear
9:35 AM 84.2 °F 50.0 °F 30% 30.02 in 10.0 mi East 8.1 mph - N/A   Clear
9:55 AM 86.0 °F 50.0 °F 29% 30.02 in 10.0 mi ENE 4.6 mph - N/A   Clear
10:15 AM 87.8 °F 50.0 °F 27% 30.01 in 10.0 mi East 6.9 mph - N/A   Clear
10:35 AM 87.8 °F 50.0 °F 27% 30.01 in 10.0 mi East 5.8 mph - N/A   Clear
10:55 AM 89.6 °F 48.2 °F 24% 30.01 in 10.0 mi SE 9.2 mph - N/A   Clear
11:15 AM 89.6 °F 50.0 °F 26% 30.01 in 10.0 mi East 5.8 mph - N/A   Clear
11:35 AM 91.4 °F 48.2 °F 23% 30.01 in 10.0 mi East 5.8 mph - N/A   Clear
11:55 AM 91.4 °F 50.0 °F 24% 30.00 in 10.0 mi SE 4.6 mph - N/A   Clear
12:15 PM 93.2 °F 48.2 °F 21% 30.00 in 10.0 mi SSE 3.5 mph - N/A   Clear
12:35 PM 93.2 °F 48.2 °F 21% 29.99 in 10.0 mi East 8.1 mph - N/A   Clear
12:55 PM 95.0 °F 48.2 °F 20% 29.99 in 10.0 mi SE 8.1 mph - N/A   Clear
1:15 PM 96.8 °F 46.4 °F 18% 29.99 in 10.0 mi SSE 4.6 mph - N/A   Clear
1:35 PM 95.0 °F 46.4 °F 19% 29.97 in 10.0 mi SSE 6.9 mph - N/A   Clear
1:55 PM 96.8 °F 46.4 °F 18% 29.97 in 10.0 mi Calm Calm - N/A   Clear
2:15 PM 96.8 °F 46.4 °F 18% 29.96 in 10.0 mi South 3.5 mph - N/A   Clear
2:35 PM 98.6 °F 46.4 °F 17% 29.95 in 10.0 mi SE 8.1 mph - N/A   Clear
2:55 PM 98.6 °F 46.4 °F 17% 29.95 in 10.0 mi SE 6.9 mph 16.1 mph N/A   Clear
3:15 PM 98.6 °F 46.4 °F 17% 29.94 in 10.0 mi Calm Calm - N/A   Clear
3:35 PM 98.6 °F 44.6 °F 16% 29.93 in 10.0 mi SSW 3.5 mph - N/A   Clear
3:55 PM 98.6 °F 44.6 °F 16% 29.92 in 10.0 mi SSE 3.5 mph - N/A   Clear
4:15 PM 100.4 °F 44.6 °F 15% 29.92 in 10.0 mi East 6.9 mph - N/A   Clear
4:35 PM 98.6 °F 44.6 °F 16% 29.91 in 10.0 mi East 9.2 mph - N/A   Clear
4:55 PM 100.4 °F 42.8 °F 14% 29.90 in 10.0 mi ENE 5.8 mph - N/A   Clear
5:15 PM 100.4 °F 42.8 °F 14% 29.89 in 10.0 mi East 4.6 mph - N/A   Clear
5:35 PM 100.4 °F 44.6 °F 15% 29.90 in 10.0 mi East 6.9 mph - N/A   Clear
5:55 PM 100.4 °F 44.6 °F 15% 29.90 in 10.0 mi East 6.9 mph - N/A   Clear
8:35 PM 93.2 °F 51.8 °F 24% 29.89 in 10.0 mi ESE 5.8 mph - N/A   Clear
8:55 PM 91.4 °F 51.8 °F 26% 29.89 in 10.0 mi ESE 5.8 mph - N/A   Clear
9:15 PM 89.6 °F 51.8 °F 27% 29.89 in 10.0 mi ESE 4.6 mph - N/A   Clear
9:35 PM 89.6 °F 51.8 °F 27% 29.89 in 10.0 mi SE 4.6 mph - N/A   Clear
9:55 PM 87.8 °F 48.2 °F 25% 29.90 in 10.0 mi SE 4.6 mph - N/A   Clear
10:15 PM 87.8 °F 51.8 °F 29% 29.90 in 10.0 mi ESE 5.8 mph - N/A   Clear
10:35 PM 86.0 °F 51.8 °F 31% 29.91 in 10.0 mi ESE 5.8 mph - N/A   Clear
10:55 PM 86.0 °F 51.8 °F 31% 29.91 in 10.0 mi ESE 4.6 mph - N/A   Clear
11:15 PM 84.2 °F 50.0 °F 30% 29.91 in 10.0 mi ESE 4.6 mph - N/A   Clear
11:55 PM 82.4 °F 50.0 °F 32% 29.91 in 10.0 mi Calm Calm - N/A   Clear